Weather in Tuim

Russia / Republic of Khakassia     54°20′18″N   89°56′42″E
temp.,
°C
wind,
m/s
gust,
m/s
humid.,
%
clouds,
%
prec.,
mm/h
press.,
hPa
HPBL,
m
17 may, mon
mon1701:00+10nnw1197100 4.0 1011113
04:00+10n1297100 1.5 1011159
07:00+10ene009684 1.7 1011203
10:00+10n2396100 0.6 1012334
13:00+11nne3390100 1.4 1013521
16:00+10nnw1286100 0.2 1013357
19:00+10n238998 0.6 1014339
22:00+8ssw119481 0.1 101513
18 may, tue
tue1801:00+9ssw229078 0.1 101357
04:00+8sw228993 0.0 101251
07:00+10sw31180100 0.0 1009651
10:00+13sw71677100 0.1 10051052
13:00+17wsw92064100 0.1 10001825
16:00+17w12226733 0.8 9972142
19:00+12nw12207299 0.9 10021455
22:00+7nw3986100 0.1 1008795
19 may, wed
wed1901:00+6ene229399 0.1 1008342
04:00+6e1293100 0.0 1006340
07:00+5ne3398100 2.4 1003292
10:00+3n4699100 11.2 1005513
13:00+2nnw23100100 19.0 1006199
16:00+4wnw1299100 0.6 1006155
19:00+4n2794100 1.0 1008768
22:00+2nnw2284100 0.1 100846
20 may, thu
thu2001:00+1nnw2683100 0.1 1009384
04:00−1n2692100 0.4 1009675
07:00−1n3676100 0.6 1009760
10:00+1n5567100 0.1 10101504
13:00+3n4557100 0.2 10101793
16:00+3n4654100 0.3 10111786
19:00+3nnw4651100 0.3 10121762
22:00−1nw3877100 0.2 1015301
21 may, fri
fri2101:00−2w1385100 0.2 101780
04:00−2wsw239574 0.4 1017219
07:00−1wnw3783100 0.5 1019734
10:00+2wnw5882100 0.2 1020895
13:00+3nw698497 1.3 10211050
16:00+6nnw686299 1.2 10201621
19:00+5nw477286 2.2 1022886
22:00+1sw228281 0.2 102417